WZZ66W LZIB-LZKZ

Flight info

Callsign WZZ66W
Flight time 0h 31m
Altitude 23000
Route NIT N190 TAKOS
Aircraft A320/M-SDE3FGHIRWY/LB1

Departure

Time 2026-04-29 18:47
Airport M. R. Štefánik Airport (LZIB)

Arrival

Time 2026-04-29 19:18
Airport Košice International Airport (LZKZ)
Time Latitude Longitude Altitude Speed Heading
2026-04-29 18:20 48.16889 17.20044 432 ft 0 kts 314°
2026-04-29 18:35 48.16886 17.20049 426 ft 4 kts 314°
2026-04-29 18:35 48.16871 17.20077 427 ft 3 kts 301°
2026-04-29 18:36 48.16863 17.20100 419 ft 2 kts 276°
2026-04-29 18:36 48.16863 17.20121 426 ft 3 kts 249°
2026-04-29 18:36 48.16871 17.20143 421 ft 2 kts 229°
2026-04-29 18:36 48.16880 17.20159 426 ft 2 kts 224°
2026-04-29 18:37 48.16888 17.20170 424 ft 2 kts 222°
2026-04-29 18:37 48.16893 17.20176 425 ft 0 kts 222°
2026-04-29 18:40 48.16888 17.20169 432 ft 3 kts 222°
2026-04-29 18:40 48.16864 17.20150 432 ft 5 kts 191°
2026-04-29 18:40 48.16829 17.20185 426 ft 8 kts 134°
2026-04-29 18:40 48.16786 17.20252 430 ft 10 kts 136°
2026-04-29 18:41 48.16595 17.20227 430 ft 14 kts 221°
2026-04-29 18:41 48.16514 17.20127 426 ft 16 kts 219°
2026-04-29 18:42 48.16422 17.20010 420 ft 18 kts 221°
2026-04-29 18:42 48.16330 17.19889 427 ft 18 kts 221°
2026-04-29 18:42 48.16240 17.19792 430 ft 14 kts 201°
2026-04-29 18:42 48.16169 17.19820 435 ft 9 kts 136°
2026-04-29 18:43 48.16158 17.19837 431 ft 0 kts 134°
2026-04-29 18:45 48.16135 17.19872 427 ft 11 kts 133°
2026-04-29 18:45 48.16095 17.19963 430 ft 7 kts 75°
2026-04-29 18:45 48.16115 17.19994 427 ft 1 kts 44°
2026-04-29 18:45 48.16121 17.20002 430 ft 3 kts 44°
2026-04-29 18:46 48.16123 17.20006 432 ft 0 kts 44°
2026-04-29 18:46 48.16126 17.20011 431 ft 2 kts 44°
2026-04-29 18:46 48.16193 17.20107 427 ft 45 kts 44°
2026-04-29 18:46 48.16639 17.20748 428 ft 127 kts 43°
2026-04-29 18:47 48.17387 17.21862 739 ft 165 kts 42°
2026-04-29 18:47 48.18204 17.23096 1703 ft 167 kts 43°
2026-04-29 18:47 48.19029 17.24301 2838 ft 163 kts 41°
2026-04-29 18:47 48.19844 17.25446 3928 ft 159 kts 41°
2026-04-29 18:48 48.20658 17.26594 4505 ft 168 kts 42°
2026-04-29 18:48 48.21565 17.27879 4804 ft 191 kts 43°
2026-04-29 18:48 48.22375 17.29583 5074 ft 215 kts 67°
2026-04-29 18:48 48.22673 17.31901 5586 ft 233 kts 78°
2026-04-29 18:49 48.22962 17.34391 6151 ft 253 kts 76°
2026-04-29 18:49 48.23318 17.37036 6945 ft 263 kts 75°
2026-04-29 18:49 48.23697 17.39750 7777 ft 269 kts 75°
2026-04-29 18:49 48.24083 17.42530 8653 ft 275 kts 75°
2026-04-29 18:50 48.24468 17.45343 9509 ft 281 kts 75°
2026-04-29 18:50 48.24860 17.48258 10255 ft 293 kts 75°
2026-04-29 18:50 48.25280 17.51373 10551 ft 316 kts 75°
2026-04-29 18:50 48.25731 17.54729 10791 ft 340 kts 75°
2026-04-29 18:51 48.26204 17.58296 11228 ft 354 kts 76°
2026-04-29 18:51 48.26682 17.61956 11874 ft 361 kts 76°
2026-04-29 18:51 48.27165 17.65679 12553 ft 366 kts 76°
2026-04-29 18:51 48.27657 17.69469 13226 ft 372 kts 75°
2026-04-29 18:52 48.28156 17.73318 13904 ft 378 kts 75°
2026-04-29 18:52 48.28663 17.77216 14530 ft 383 kts 75°
2026-04-29 18:52 48.29177 17.81173 15133 ft 388 kts 75°
2026-04-29 18:52 48.29695 17.85167 15726 ft 392 kts 75°
2026-04-29 18:53 48.30218 17.89209 16307 ft 397 kts 75°
2026-04-29 18:53 48.30745 17.93303 16902 ft 401 kts 75°
2026-04-29 18:53 48.31279 17.97440 17495 ft 406 kts 75°
2026-04-29 18:53 48.31821 18.01634 18092 ft 411 kts 75°
2026-04-29 18:54 48.32361 18.05872 18661 ft 416 kts 75°
2026-04-29 18:54 48.32899 18.10115 19164 ft 421 kts 75°
2026-04-29 18:54 48.33455 18.14512 19692 ft 426 kts 75°
2026-04-29 18:54 48.34013 18.18911 20210 ft 431 kts 75°
2026-04-29 18:55 48.34568 18.23291 20712 ft 435 kts 75°
2026-04-29 18:55 48.35136 18.27790 21150 ft 440 kts 75°
2026-04-29 18:55 48.35706 18.32329 21267 ft 442 kts 75°
2026-04-29 18:55 48.36275 18.36881 21284 ft 442 kts 75°
2026-04-29 18:56 48.36841 18.41429 21286 ft 443 kts 75°
2026-04-29 18:56 48.37406 18.46003 21284 ft 443 kts 75°
2026-04-29 18:56 48.37966 18.50561 21284 ft 444 kts 75°
2026-04-29 18:56 48.38529 18.55135 21283 ft 444 kts 75°
2026-04-29 18:57 48.39091 18.59699 21286 ft 444 kts 75°
2026-04-29 18:57 48.39652 18.64280 21285 ft 445 kts 75°
2026-04-29 18:57 48.40208 18.68863 21282 ft 445 kts 75°
2026-04-29 18:57 48.40761 18.73448 21285 ft 445 kts 75°
2026-04-29 18:58 48.41305 18.77976 21285 ft 446 kts 75°
2026-04-29 18:58 48.41857 18.82572 21286 ft 446 kts 75°
2026-04-29 18:58 48.42413 18.87173 21280 ft 446 kts 75°
2026-04-29 18:58 48.42966 18.91777 21291 ft 447 kts 75°
2026-04-29 18:59 48.43519 18.96383 21289 ft 447 kts 75°
2026-04-29 18:59 48.44068 19.00990 21286 ft 447 kts 76°
2026-04-29 18:59 48.44616 19.05617 21282 ft 448 kts 76°
2026-04-29 18:59 48.45162 19.10247 21288 ft 448 kts 76°
2026-04-29 19:00 48.45706 19.14868 21287 ft 448 kts 76°
2026-04-29 19:00 48.46246 19.19489 21288 ft 448 kts 76°
2026-04-29 19:00 48.46784 19.24111 21292 ft 448 kts 76°
2026-04-29 19:00 48.47320 19.28727 21294 ft 447 kts 76°
2026-04-29 19:01 48.47853 19.33343 21289 ft 447 kts 76°
2026-04-29 19:01 48.48387 19.37960 21293 ft 446 kts 76°
2026-04-29 19:01 48.48921 19.42581 21288 ft 447 kts 76°
2026-04-29 19:01 48.49448 19.47145 21293 ft 446 kts 76°
2026-04-29 19:02 48.49978 19.51758 21298 ft 446 kts 76°
2026-04-29 19:02 48.50333 19.54868 21294 ft 446 kts 76°
2026-04-29 19:02 48.51024 19.60965 21294 ft 446 kts 76°
2026-04-29 19:02 48.51545 19.65575 21246 ft 446 kts 76°
2026-04-29 19:03 48.52074 19.70251 20873 ft 458 kts 76°
2026-04-29 19:03 48.52607 19.75007 20614 ft 461 kts 77°
2026-04-29 19:03 48.53137 19.79788 20366 ft 460 kts 77°
2026-04-29 19:03 48.53662 19.84545 20124 ft 458 kts 77°
2026-04-29 19:04 48.54176 19.89196 19654 ft 455 kts 77°
2026-04-29 19:04 48.54698 19.93917 18852 ft 452 kts 77°
2026-04-29 19:04 48.55209 19.98567 18069 ft 448 kts 77°
2026-04-29 19:04 48.55713 20.03191 17360 ft 441 kts 77°
2026-04-29 19:05 48.56207 20.07724 16706 ft 434 kts 77°
2026-04-29 19:05 48.56692 20.12185 16045 ft 428 kts 78°
2026-04-29 19:05 48.57168 20.16599 15380 ft 423 kts 78°
2026-04-29 19:05 48.57639 20.20959 14707 ft 419 kts 78°
2026-04-29 19:06 48.58015 20.25308 14043 ft 416 kts 85°
2026-04-29 19:06 48.57941 20.29656 13346 ft 412 kts 95°
2026-04-29 19:06 48.57104 20.38052 12007 ft 401 kts 98°
2026-04-29 19:07 48.56685 20.42189 11351 ft 395 kts 98°
2026-04-29 19:07 48.56546 20.43570 11249 ft 390 kts 98°
2026-04-29 19:07 48.55889 20.50049 11022 ft 360 kts 98°
2026-04-29 19:07 48.55522 20.53666 10902 ft 346 kts 98°
2026-04-29 19:08 48.55160 20.57234 10772 ft 333 kts 98°
2026-04-29 19:08 48.54816 20.60577 10644 ft 322 kts 98°
2026-04-29 19:08 48.54473 20.63872 10479 ft 313 kts 98°
2026-04-29 19:08 48.54138 20.67094 10193 ft 309 kts 98°
2026-04-29 19:09 48.53832 20.70052 10008 ft 304 kts 97°
2026-04-29 19:09 48.53500 20.73252 9508 ft 309 kts 97°
2026-04-29 19:09 48.53172 20.76411 9302 ft 301 kts 97°
2026-04-29 19:09 48.52850 20.79481 8830 ft 292 kts 96°
2026-04-29 19:10 48.52537 20.82478 8316 ft 286 kts 96°
2026-04-29 19:10 48.52232 20.85403 7807 ft 279 kts 96°
2026-04-29 19:10 48.51930 20.88266 7330 ft 272 kts 96°
2026-04-29 19:10 48.51632 20.91053 6844 ft 266 kts 96°
2026-04-29 19:11 48.51341 20.93762 6502 ft 253 kts 96°
2026-04-29 19:11 48.51068 20.96280 6367 ft 235 kts 96°
2026-04-29 19:11 48.50815 20.98629 6181 ft 220 kts 95°
2026-04-29 19:11 48.50576 21.00898 5625 ft 222 kts 94°
2026-04-29 19:12 48.50332 21.03218 5013 ft 226 kts 95°
2026-04-29 19:12 48.50030 21.05497 4632 ft 220 kts 97°
2026-04-29 19:12 48.49693 21.07685 4478 ft 211 kts 97°
2026-04-29 19:12 48.49579 21.08407 4432 ft 210 kts 97°
2026-04-29 19:13 48.49025 21.11977 4204 ft 210 kts 94°
2026-04-29 19:13 48.49020 21.14103 4058 ft 198 kts 75°
2026-04-29 19:13 48.49441 21.15994 3955 ft 185 kts 58°
2026-04-29 19:13 48.50168 21.17499 3828 ft 172 kts 43°
2026-04-29 19:14 48.51084 21.18557 3643 ft 160 kts 29°
2026-04-29 19:14 48.52094 21.19162 3450 ft 154 kts 16°
2026-04-29 19:14 48.53113 21.19515 3247 ft 145 kts 15°
2026-04-29 19:14 48.53745 21.19735 3124 ft 137 kts 15°
2026-04-29 19:15 48.54648 21.20050 2949 ft 131 kts 15°
2026-04-29 19:15 48.55529 21.20357 2786 ft 129 kts 15°
2026-04-29 19:15 48.56399 21.20660 2594 ft 128 kts 15°
2026-04-29 19:15 48.57267 21.20963 2420 ft 128 kts 15°
2026-04-29 19:16 48.58135 21.21265 2232 ft 128 kts 15°
2026-04-29 19:16 48.58998 21.21566 2059 ft 127 kts 15°
2026-04-29 19:16 48.59864 21.21868 1868 ft 129 kts 14°
2026-04-29 19:16 48.60733 21.22170 1683 ft 128 kts 14°
2026-04-29 19:17 48.61603 21.22488 1471 ft 130 kts 13°
2026-04-29 19:17 48.62492 21.22808 1264 ft 132 kts 11°
2026-04-29 19:17 48.63393 21.23102 1098 ft 133 kts 12°
2026-04-29 19:17 48.64288 21.23407 911 ft 130 kts 13°
2026-04-29 19:18 48.65152 21.23714 770 ft 126 kts 13°
2026-04-29 19:18 48.65676 21.23898 754 ft 101 kts 13°
2026-04-29 19:18 48.66414 21.24159 757 ft 68 kts 12°
2026-04-29 19:18 48.66779 21.24283 757 ft 42 kts 14°
2026-04-29 19:19 48.67031 21.24372 758 ft 21 kts 12°
2026-04-29 19:19 48.67175 21.24422 759 ft 18 kts
2026-04-29 19:19 48.67245 21.24317 755 ft 16 kts 283°
2026-04-29 19:19 48.67271 21.24148 755 ft 13 kts 283°
2026-04-29 19:20 48.67287 21.24041 757 ft 12 kts 283°
2026-04-29 19:20 48.67305 21.23933 755 ft 4 kts 293°
2026-04-29 19:20 48.67312 21.23886 756 ft 6 kts 249°
2026-04-29 19:20 48.67299 21.23855 753 ft 2 kts 234°
2026-04-29 19:21 48.67292 21.23842 755 ft 0 kts 233°